Tracking 34346 objects as of 10-Jun-2026
HD Live streaming from Space Station
objects crossing your sky now

GORIZONT 30

Track GORIZONT 30 now!
GORIZONT 30 is classified as:


NORAD ID: 23108
Int'l Code: 1994-030A
Perigee: 35,802.5 km
Apogee: 35,840.2 km
Inclination: 14.1 °
Period: 1,437.5 minutes
Semi major axis: 42192 km
RCS: 12.5892 m2 (large)
Launch date: May 20, 1994
Source: Commonwealth of Independent States (former USSR) (CIS)
Launch site: TYURATAM MISSILE AND SPACE COMPLEX (TTMTR)
Your satellite tracking list
Your tracking list is empty




NASA's NSSDC Master Catalog

Two Line Element Set (TLE):
1 23108U 94030A   26161.46791880 -.00000260  00000-0  00000-0 0  9998
2 23108  14.0623 348.2404 0004464 289.3744  76.0312  1.00173283117397
Source of the keplerian elements: AFSPC